Notices

What's New in latest Release from April 7th, 2021:

- Updated Glossary, including Speed of Maximum Gust, and Total Hourly Precipitation

- Updated national and regional climate services offices contacts and prices information

- Addition of station inventory lists for 1981-2010, 1971-2000, and 1961-1990 Normals.

If you haven't already, please take our survey and provide feedback about our website: https://eccc.sondage-survey.ca/f/LanguageSelection.aspx?s=442ca660-fcf1-47c0-95a9-59707d6fd709

Hourly Data Report for April 09, 2017

MIRAMICHI RCS
NEW BRUNSWICK

47°00'34.000" N
65°27'54.000" W
33.00 m
8100989
71744
ACQ

Download Data

Hourly Data (April 2017)
Hourly Data Report for April 9, 2017
TIME
LST
Temp Definition
°C
Dew Point Definition
°C
Rel Hum Definition
%
Precip. Amount Definition
mm

Wind Dir Definition
10's deg

Wind Spd Definition
km/h
Visibility Definition
km
Stn Press Definition
kPa
Hmdx Definition


Wind Chill Definition


Weather Definition


00:00 2.6 0.8 88 0.0 26 7   99.73     LegendNANA
01:00 2.4 0.6 88 0.0 25 7   99.78     LegendNANA
02:00 2.1 0.5 89 0.0 26 8   99.83     LegendNANA
03:00 1.0 -0.1 93 0.0 27 6   99.91     LegendNANA
04:00 0.7 -0.4 93 0.0 26 6   100.03     LegendNANA
05:00 1.8 0.2 90 0.0 25 8   100.14     LegendNANA
06:00 2.2 0.3 87 0.0 27 9   100.26     LegendNANA
07:00 3.2 0.2 81 0.0 30 9   100.38     LegendNANA
08:00 4.0 -0.4 73 0.0 30 11   100.48     LegendNANA
09:00 4.8 -0.8 67 0.0 30 12   100.60     LegendNANA
10:00 6.9 -1.4 55 0.0 31 13   100.67     LegendNANA
11:00 7.4 -2.4 50 0.0 32 13   100.72     LegendNANA
12:00 7.6 -2.0 51 0.0 29 16   100.78     LegendNANA
13:00 8.0 -2.5 47 0.0 30 15   100.84     LegendNANA
14:00 8.0 -2.5 47 0.0 28 13   100.91     LegendNANA
15:00 8.4 -2.6 46 0.0 31 7   100.97     LegendNANA
16:00 8.3 -2.6 46 0.0 32 6   101.02     LegendNANA
17:00 8.3 -2.5 47 0.0 26 9   101.05     LegendNANA
18:00 8.0 -2.7 47 0.0 25 12   101.12     LegendNANA
19:00 6.1 -2.6 53 0.0 25 9   101.19     LegendNANA
20:00 4.2 -2.6 61 0.0 23 3   101.24     LegendNANA
21:00 1.3 -3.1 72 0.0 23 3   101.31     LegendNANA
22:00 -0.3 -2.9 83 0.0   0   101.32     LegendNANA
23:00 -0.6 -2.9 84 0.0 26 2   101.36   -1 LegendNANA

Notes on Data Quality.

Legend

  • E = Estimated
  • M = Missing
  • NA = Not Available*
  • [empty] = Indicates an unobserved value
Date modified: